Black Butte Lake Weather Center

Moon Phase Calendar



Black Butte Lake Water Level
Online Cameras

 


      

Current Conditions in Wilson Place
7/22/2024 7:56:52 AM

79°F
Feels Like 78
Clear
Humidity
33%
Pressure
29.83"
Wind
3.4 mph (N)
Dew Point
47°F
UV Index
1/10 (Low)
Visibility
6 mi

Hourly Forecast

Date & Time Mon, Jul 22
7:00 AM
Mon, Jul 22
8:00 AM
Mon, Jul 22
9:00 AM
Mon, Jul 22
10:00 AM
Mon, Jul 22
11:00 AM
Mon, Jul 22
12:00 PM
Mon, Jul 22
1:00 PM
Mon, Jul 22
2:00 PM
Mon, Jul 22
3:00 PM
Mon, Jul 22
4:00 PM
Mon, Jul 22
5:00 PM
Mon, Jul 22
6:00 PM
Mon, Jul 22
7:00 PM
Mon, Jul 22
8:00 PM
Mon, Jul 22
9:00 PM
Mon, Jul 22
10:00 PM
Mon, Jul 22
11:00 PM
Tue, Jul 23
12:00 AM
Tue, Jul 23
1:00 AM
Tue, Jul 23
2:00 AM
Tue, Jul 23
3:00 AM
Tue, Jul 23
4:00 AM
Tue, Jul 23
5:00 AM
Tue, Jul 23
6:00 AM
Tue, Jul 23
7:00 AM
Tue, Jul 23
8:00 AM
Tue, Jul 23
9:00 AM
Tue, Jul 23
10:00 AM
Tue, Jul 23
11:00 AM
Tue, Jul 23
12:00 PM
Tue, Jul 23
1:00 PM
Tue, Jul 23
2:00 PM
Tue, Jul 23
3:00 PM
Tue, Jul 23
4:00 PM
Tue, Jul 23
5:00 PM
Tue, Jul 23
6:00 PM
Tue, Jul 23
7:00 PM
Tue, Jul 23
8:00 PM
Tue, Jul 23
9:00 PM
Tue, Jul 23
10:00 PM
Tue, Jul 23
11:00 PM
Wed, Jul 24
12:00 AM
Wed, Jul 24
1:00 AM
Wed, Jul 24
2:00 AM
Wed, Jul 24
3:00 AM
Wed, Jul 24
4:00 AM
Wed, Jul 24
5:00 AM
Wed, Jul 24
6:00 AM
Condition
Clear

Clear

Clear

Clear

Clear

Clear

Clear

Clear

Clear

Clear

Clear

Clear

Clear

Clear

Clear

Clear

Clear

Clear

Clear

Clear

Clear

Clear

Clear

Clear

Clear

Clear

Clear

Clear

Clear

Clear

Clouds

Clouds

Clouds

Clouds

Clouds

Clear

Clouds

Clouds

Clouds

Clouds

Clouds

Clouds

Clouds

Clouds

Clouds

Rain

Rain

Clouds
Temperature 78°F79°F80°F84°F91°F99°F106°F108°F110°F112°F112°F111°F109°F102°F95°F89°F85°F82°F80°F79°F79°F77°F77°F76°F78°F86°F92°F97°F102°F104°F107°F109°F111°F112°F113°F113°F110°F103°F94°F89°F87°F84°F81°F79°F77°F76°F75°F75°F
Feels Like 77°F78°F80°F82°F87°F95°F102°F104°F105°F107°F107°F107°F105°F98°F91°F86°F82°F80°F79°F79°F78°F76°F76°F75°F78°F83°F89°F94°F98°F100°F103°F105°F106°F108°F108°F108°F105°F99°F90°F86°F84°F82°F80°F79°F76°F75°F75°F74°F
Cloudiness 0%0%0%0%1%1%1%0%0%0%0%0%0%0%0%0%0%0%0%0%0%1%1%6%4%3%2%2%2%4%42%63%71%77%76%7%35%46%57%66%71%48%60%76%81%84%84%44%
Visibility 6 mi6 mi6 mi6 mi6 mi6 mi6 mi6 mi6 mi6 mi6 mi6 mi6 mi6 mi6 mi6 mi6 mi6 mi6 mi6 mi6 mi6 mi6 mi6 mi6 mi6 mi6 mi6 mi6 mi6 mi6 mi6 mi6 mi6 mi6 mi6 mi6 mi6 mi6 mi6 mi6 mi6 mi6 mi6 mi6 mi6 mi6 mi6 mi
Precipitation 0%0%0%0%0%0%0%0%0%0%0%0%0%0%0%0%0%0%0%0%0%0%0%0%0%0%0%0%0%0%0%0%0%0%0%0%0%0%0%0%0%0%0%0%0%26%26%0%
Humidity 35%33%32%29%24%19%14%12%11%11%11%11%11%14%18%21%25%28%31%33%34%35%36%37%36%29%24%19%16%14%13%12%11%11%10%10%11%14%18%21%23%25%27%29%33%40%44%42%
Dew Point 48°F47°F48°F49°F49°F49°F48°F47°F46°F45°F45°F45°F45°F46°F45°F46°F46°F46°F47°F48°F48°F48°F48°F48°F50°F50°F50°F49°F48°F47°F46°F46°F46°F45°F45°F44°F45°F45°F45°F45°F45°F45°F44°F44°F47°F50°F52°F50°F
Pressure 29.83"29.83"29.83"29.83"29.8"29.77"29.74"29.71"29.68"29.65"29.62"29.62"29.62"29.62"29.65"29.68"29.68"29.74"29.74"29.77"29.77"29.8"29.8"29.83"29.83"29.83"29.83"29.83"29.83"29.8"29.77"29.77"29.74"29.71"29.68"29.65"29.68"29.71"29.74"29.77"29.8"29.83"29.83"29.85"29.85"29.85"29.88"29.91"
Wind Speed 2.7 mph3.4 mph4.2 mph3.9 mph3 mph3.1 mph4.6 mph5.8 mph6.7 mph7.2 mph7.9 mph8.1 mph8.1 mph7.3 mph4.2 mph3.2 mph0.2 mph0.3 mph2.8 mph3.2 mph4 mph4.2 mph3.9 mph3.5 mph3.2 mph2.3 mph2.2 mph1.4 mph3.4 mph5.9 mph8.1 mph10.5 mph11.2 mph12.9 mph14.9 mph11.6 mph10.1 mph8.1 mph5.8 mph3.5 mph1.8 mph3.7 mph1.4 mph1.4 mph2.8 mph2 mph1.8 mph1.3 mph
Wind
Direction
319°
NW

N
16°
NNE
26°
NNE
44°
NE
99°
E
135°
SE
147°
SSE
154°
SSE
156°
SSE
157°
SSE
157°
SSE
155°
SSE
152°
SSE
183°
S
242°
WSW
255°
WSW
225°
SW
305°
NW
329°
NNW
350°
N
342°
NNW
321°
NW
301°
WNW
294°
WNW
332°
NNW
13°
NNE
59°
ENE
131°
SE
143°
SE
148°
SSE
149°
SSE
146°
SE
136°
SE
139°
SE
175°
S
186°
S
177°
S
207°
SSW
222°
SW
159°
SSE
149°
SSE
148°
SSE
170°
S
244°
WSW
269°
W

N
346°
NNW

Daily Forecast

Date High Low Precip. Humidity
Today
Jul 22

Clear
112 °F
75 °F
0%
14%
Tuesday
Jul 23

Clouds
113 °F
76 °F
0%
13%
Wednesday
Jul 24

Rain
113 °F
75 °F
26%
15%
Thursday
Jul 25

Clear
108 °F
71 °F
0%
14%
Friday
Jul 26

Clear
100 °F
65 °F
0%
10%
Saturday
Jul 27

Clear
95 °F
56 °F
0%
16%
Sunday
Jul 28

Clear
97 °F
58 °F
0%
15%
Monday
Jul 29

Clear
98 °F
58 °F
0%
16%
Tuesday
Jul 30

Clear
102 °F
64 °F
0%
13%
Wednesday
Jul 31

Clear
106 °F
67 °F
0%
10%
Thursday
Aug 1

Clear
108 °F
67 °F
0%
9%
Friday
Aug 2

Clear
112 °F
68 °F
0%
7%
Saturday
Aug 3

Clear
111 °F
70 °F
0%
8%
Sunday
Aug 4

Clear
105 °F
66 °F
0%
14%
Monday
Aug 5

Clear
106 °F
65 °F
0%
10%
Tuesday
Aug 6

Clear
107 °F
65 °F
0%
8%

Temperature 8-14 Day Outlook



Precipitation 8-14 Day Outlook






About Us
Contact Us
Site Map
Search Site
Advertise With Us
   
BlackButte.LakesOnline.com
THE BLACK BUTTE LAKE WEBSITE

Copyright 2024, Lakes Online
Privacy    |    Legal